GFSMW_700_spd_087.txt.gz
Wind_Speed
33 31 35 35 35 30 30 23 20 20 25 26 28 29 20 18 18 23 31 34 31 33 40 24 28 41 43 40 36 35 33 34 33 30 29 27 25 23 22 22 22 21 20
35 31 33 33 33 32 29 22 19 19 24 27 27 26 19 17 20 23 29 33 28 39 41 33 37 41 39 38 37 36 34 36 33 32 30 30 28 25 23 22 23 23 23
35 27 26 27 30 31 26 19 19 19 24 24 26 22 19 18 22 26 30 36 27 34 41 36 30 44 42 38 37 36 35 30 32 33 33 31 29 24 23 21 24 25 24
28 26 24 27 29 27 23 21 20 19 21 22 23 19 17 18 16 18 27 30 27 27 36 39 31 47 41 39 36 35 34 35 38 35 33 31 26 23 23 23 23 24 24
20 21 20 25 26 26 20 21 19 18 18 19 20 16 14 13 11 15 20 19 22 25 35 41 47 44 39 37 36 35 33 33 33 31 29 29 28 27 23 22 21 24 25
17 19 19 25 28 26 22 21 19 17 16 18 16 13 12 10 10 12 17 16 19 24 43 42 42 41 39 36 36 33 34 32 33 32 32 31 27 24 26 27 25 27 28
17 13 20 27 25 22 23 24 17 14 15 15 13 10 11 9 7 13 16 14 26 38 47 48 45 44 42 40 36 36 35 37 36 37 33 31 29 27 26 25 23 26 26
19 19 22 25 19 22 24 25 21 14 14 12 9 9 8 9 6 11 15 10 25 29 38 41 43 43 39 32 31 39 40 42 40 34 34 33 34 32 31 30 31 33 34
23 18 21 24 21 19 23 25 22 15 14 10 7 7 6 8 6 7 13 18 24 31 28 35 33 36 30 21 26 29 29 38 32 32 35 39 42 40 36 35 36 37 38
27 27 22 25 20 22 26 22 20 15 14 10 7 6 5 7 9 10 10 15 17 23 22 31 15 20 29 22 25 25 23 22 23 30 35 40 36 33 40 40 40 41 41
25 27 25 25 18 25 29 24 20 17 15 11 8 5 4 6 10 13 13 14 17 19 18 18 24 26 17 23 18 19 25 18 21 26 31 33 31 37 35 38 44 47 47
21 24 23 28 26 32 29 26 22 18 16 13 11 8 6 5 9 13 15 14 17 19 21 23 27 31 27 23 20 23 20 26 24 25 31 39 36 32 33 34 39 35 43
12 19 21 24 34 35 30 25 23 21 18 16 13 10 8 8 7 10 14 15 16 16 16 17 20 25 27 27 28 22 21 25 25 28 26 28 30 29 30 30 31 32 34
11 16 18 30 34 33 30 27 24 24 21 18 16 13 11 9 9 9 10 11 12 13 13 14 15 18 22 26 23 27 29 31 28 27 30 30 31 33 34 35 38 41 45
9 12 26 28 33 32 31 28 27 26 24 21 19 16 14 11 10 9 9 10 10 10 10 11 11 13 15 18 21 24 26 26 28 29 31 32 32 35 36 37 36 38 42
12 12 23 30 35 34 32 29 27 28 26 24 22 20 18 15 12 10 10 9 9 9 10 11 12 15 17 18 19 21 22 23 24 25 28 32 35 35 35 37 39 40 45
11 13 19 28 32 32 30 28 26 25 24 23 22 20 20 19 17 16 15 15 16 16 16 17 17 20 21 21 22 24 25 27 28 30 33 35 36 37 40 40 42 44 46
16 13 17 21 28 30 27 28 28 19 16 14 16 17 18 19 17 16 16 16 16 15 16 17 18 21 19 19 21 23 27 29 31 34 36 35 34 36 38 39 39 41 45
20 20 19 21 23 30 30 33 32 27 26 30 20 19 20 20 20 19 18 17 19 19 20 21 22 24 25 22 23 23 21 24 26 27 29 31 34 37 34 39 36 43 48
8 23 24 26 28 29 31 30 28 30 27 26 21 19 19 17 16 17 17 17 18 21 22 25 29 31 33 33 33 35 36 37 41 36 42 46 42 43 43 45 47 51 55
13 12 20 19 21 25 27 26 25 24 23 18 18 18 19 21 21 22 26 29 28 28 27 26 29 30 33 31 32 32 34 39 43 46 47 47 48 47 50 48 50 48 52
13 13 10 14 15 16 14 11 9 10 13 14 11 11 15 16 16 18 20 21 23 25 28 30 31 31 30 30 31 31 31 32 34 36 38 40 42 43 45 47 49 50 51
10 10 11 11 11 11 9 9 9 7 9 10 10 12 14 14 14 16 17 19 20 22 23 25 26 28 29 29 30 30 31 31 31 32 33 34 36 37 39 40 41 41 41
13 10 7 6 4 5 3 4 8 10 11 12 13 14 15 16 18 19 20 20 20 21 22 24 25 26 27 28 29 30 30 30 30 30 32 33 35 37 38 38 38 38 37
8 7 5 3 2 3 4 7 8 10 11 11 13 12 14 15 16 16 18 18 20 21 22 23 24 26 26 27 28 29 30 30 31 30 30 30 31 32 32 32 32 30 28
3 1 1 2 3 4 6 6 6 7 8 9 11 13 14 15 15 16 17 19 20 21 22 24 24 25 27 28 28 29 29 29 30 30 30 30 30 30 30 29 29 29 28

GFSMW_700_spd_090.txt.gz
Wind_Speed
32 37 35 38 40 41 37 36 34 33 31 28 29 30 27 30 31 25 22 24 28 31 33 30 30 33 40 29 38 41 40 37 33 35 31 28 26 24 24 23 23 23 22
32 36 35 38 40 41 38 36 34 31 28 24 25 26 28 31 28 25 24 25 29 34 35 35 35 34 33 38 40 41 42 39 35 33 30 31 25 27 22 22 23 23 24
33 33 34 37 38 39 38 36 36 30 26 23 22 26 29 30 25 24 25 27 31 38 35 35 36 35 26 38 47 42 42 37 35 35 32 30 28 24 24 22 21 23 24
29 32 33 29 32 32 35 39 35 26 24 21 22 25 29 25 22 24 24 28 35 43 36 34 37 35 34 39 44 42 40 40 37 33 31 29 24 25 24 22 22 22 24
19 21 26 30 30 32 33 34 32 26 24 19 22 24 25 21 21 22 23 21 28 34 37 33 43 34 30 41 45 39 40 38 36 30 31 29 28 26 22 22 20 21 20
15 19 26 28 29 31 30 31 29 24 22 19 22 23 21 19 19 19 18 20 22 30 31 38 39 42 32 44 41 37 38 38 35 30 33 32 29 24 25 22 21 19 21
13 17 22 24 26 28 29 26 26 23 20 18 20 20 17 16 17 16 15 16 16 26 29 31 37 42 39 43 41 38 39 37 34 33 37 34 29 26 24 24 24 24 24
13 16 19 24 26 30 28 24 26 23 19 17 17 17 14 14 14 12 12 15 15 24 22 29 35 33 39 44 40 39 36 34 35 34 39 35 32 31 28 27 25 26 29
16 17 15 21 23 21 22 24 28 25 20 17 17 14 11 12 12 11 11 15 11 18 22 32 38 38 41 42 41 40 39 41 39 42 43 41 39 39 38 33 32 32 33
19 20 17 19 26 22 18 25 29 25 21 18 17 12 11 10 11 11 8 12 12 19 29 28 39 42 42 44 39 35 31 27 31 32 40 41 42 41 37 42 45 47 46
14 25 25 21 24 22 21 25 28 26 23 18 16 11 10 8 10 11 9 12 15 17 19 27 26 15 33 37 34 24 23 25 24 21 21 27 31 32 38 41 34 41 36
13 19 24 25 29 25 26 27 29 26 21 19 17 12 9 8 10 12 11 11 18 16 18 20 22 20 17 18 20 20 19 15 22 18 23 22 28 31 30 28 27 37 34
15 14 24 31 30 26 26 32 31 24 21 20 18 13 10 8 9 13 15 12 17 21 23 25 24 23 24 27 24 24 19 19 20 19 22 24 24 27 26 34 38 34 33
15 9 18 25 30 28 31 35 32 26 23 21 19 16 13 10 9 13 15 15 15 16 17 20 22 22 22 26 24 24 25 20 25 22 23 26 27 27 30 31 29 31 34
12 15 18 32 31 33 32 35 30 27 24 23 20 18 16 13 12 12 15 17 16 16 15 14 14 14 17 19 22 23 22 24 24 26 26 26 27 28 31 30 31 32 36
9 12 15 15 23 32 39 37 34 29 27 28 25 21 18 16 15 15 14 14 14 14 16 17 17 16 17 16 17 18 18 19 22 24 24 24 27 30 32 34 36 37 39
10 12 15 17 21 29 35 35 31 28 28 27 26 24 22 20 18 17 17 17 17 18 18 19 20 18 16 18 19 19 20 22 25 26 28 29 31 33 34 35 38 40 43
13 19 17 19 23 26 31 32 29 28 28 28 26 24 23 22 21 20 19 18 18 18 18 20 19 19 18 19 20 21 23 27 29 29 30 32 34 35 35 35 34 35 38
17 13 22 21 23 26 30 31 31 28 27 26 26 24 24 23 22 22 21 21 21 20 20 21 21 20 18 19 20 21 23 24 24 25 23 26 29 31 32 34 41 38 43
9 9 18 23 25 31 32 32 32 31 30 26 25 20 19 22 24 23 24 23 22 21 22 23 25 24 23 26 25 26 28 29 32 33 33 34 36 40 41 43 43 45 46
6 3 4 14 23 29 32 30 32 34 38 42 35 28 23 24 21 21 21 20 20 19 19 19 21 20 22 21 24 26 29 32 35 38 36 39 38 41 43 43 41 41 43
11 11 6 10 12 14 14 19 24 31 29 30 25 25 27 20 18 17 17 20 23 24 23 26 28 30 29 31 33 32 32 32 32 32 33 34 36 37 39 40 41 41 41
9 7 9 9 5 9 7 11 14 15 14 13 12 16 13 12 13 14 15 17 18 18 19 21 23 24 25 26 28 29 30 31 31 32 33 34 34 35 35 36 36 36 37
10 9 8 5 2 5 1 4 10 5 6 8 7 7 10 12 15 17 19 20 21 22 23 24 25 26 26 27 27 27 28 28 29 30 31 32 33 34 34 34 33 32 32
8 10 9 7 8 8 9 7 5 2 1 2 4 7 9 10 12 14 16 17 18 19 19 20 21 22 24 25 25 26 26 27 28 28 29 30 30 31 31 32 32 31 30
7 6 6 5 4 4 4 5 5 4 3 3 7 11 12 13 16 16 16 15 16 17 19 20 21 22 24 24 25 25 26 27 28 28 28 29 30 30 31 31 30 30 30

GFSMW_700_spd_093.txt.gz
Wind_Speed
26 26 25 25 26 29 31 44 44 41 40 38 38 36 36 34 33 32 30 32 30 28 30 31 31 35 34 31 30 27 41 35 34 34 30 26 27 24 23 21 21 23 23
24 25 27 28 29 32 37 43 44 42 40 38 35 34 34 32 31 33 31 33 31 29 31 32 35 37 32 32 36 33 39 39 36 38 35 29 27 26 23 23 24 24 25
23 24 26 29 30 35 36 42 43 42 39 37 32 31 32 27 31 30 33 29 28 29 32 33 35 34 35 36 35 34 39 43 36 37 35 34 29 25 24 23 24 24 21
19 22 26 29 31 32 36 40 41 44 39 36 32 32 26 27 28 30 32 30 29 30 32 34 37 35 38 34 38 41 34 42 40 35 36 30 24 26 25 24 24 22 19
15 15 20 26 28 28 35 37 39 42 38 35 33 28 25 27 28 31 29 30 31 31 29 35 40 36 39 31 37 40 39 45 40 37 33 30 26 20 18 21 22 21 20
13 12 13 20 24 25 34 34 36 36 37 35 31 25 24 25 29 28 27 28 28 24 30 33 37 37 35 35 35 41 44 41 40 37 34 30 31 24 22 13 17 21 22
10 9 8 13 20 27 35 33 34 33 32 31 28 24 23 26 27 27 25 24 23 24 23 32 43 34 39 39 30 40 47 41 40 38 37 35 30 23 22 20 14 19 17
8 6 6 12 21 30 31 30 32 31 30 29 24 22 23 24 25 24 22 21 21 23 22 28 37 39 39 38 31 42 43 38 36 36 36 34 32 25 22 23 25 23 27
10 8 13 11 19 29 28 29 32 30 30 27 23 20 21 23 24 21 20 19 19 18 22 25 24 34 38 40 36 46 40 38 36 34 36 34 34 36 32 35 33 28 28
9 16 15 7 14 22 24 26 28 33 30 27 23 19 19 22 22 18 16 17 14 15 19 24 24 31 32 39 36 39 38 35 35 37 36 44 42 37 39 40 40 40 35
8 13 21 14 13 22 21 22 27 31 30 28 25 18 17 22 18 15 13 13 13 15 15 19 22 24 33 35 46 38 38 36 34 38 48 34 32 40 41 39 45 45 37
11 7 19 18 19 19 18 20 23 30 30 28 22 17 16 20 15 13 11 9 8 10 10 19 18 27 34 38 41 41 39 37 35 30 27 22 32 32 34 31 32 31 35
12 4 12 17 21 20 15 19 17 25 32 28 21 17 16 18 13 11 10 8 8 13 12 16 21 18 16 23 32 32 31 20 18 16 22 25 26 23 25 27 25 28 30
12 4 6 14 23 25 21 21 25 31 33 26 21 19 16 17 12 11 10 10 9 11 14 19 16 17 15 17 17 23 24 22 20 21 24 22 22 19 23 24 24 27 32
11 7 7 10 18 26 36 30 24 33 33 27 24 22 19 18 12 11 12 13 14 16 16 18 19 17 17 22 25 25 24 23 25 20 20 20 20 23 25 26 25 27 30
12 12 7 9 12 18 24 28 31 39 32 29 28 25 22 20 16 13 15 15 15 17 18 18 17 19 21 20 20 21 21 21 19 23 23 22 23 23 25 27 27 29 32
14 18 12 11 14 17 24 31 39 41 35 32 29 27 25 24 20 19 18 19 20 20 20 20 18 16 14 14 15 17 19 20 22 23 25 25 26 26 27 31 32 35 35
13 12 14 13 18 19 28 37 38 37 34 31 29 27 26 26 25 24 22 22 22 22 22 22 20 19 19 19 20 21 24 25 25 26 26 28 29 29 30 32 35 37 40
16 16 18 18 22 27 30 31 32 32 30 30 29 28 28 28 27 27 26 25 24 24 24 24 24 23 23 24 25 26 27 29 30 31 32 33 32 28 23 26 34 36 38
9 10 15 15 21 26 32 33 37 34 30 29 26 27 28 29 29 28 28 27 27 26 24 24 24 25 24 23 21 20 21 25 27 29 29 31 32 31 34 35 37 35 39
3 6 5 4 8 16 24 30 29 36 35 33 33 35 31 28 27 27 27 26 27 27 25 25 26 25 25 25 25 22 25 28 29 31 30 33 30 34 40 43 38 44 42
8 10 8 10 9 10 6 14 25 33 35 38 37 34 28 37 32 28 28 31 29 29 26 22 25 24 24 25 26 30 31 31 33 31 35 36 36 38 40 37 38 40 42
5 7 8 9 11 9 10 7 7 5 14 15 13 25 29 33 30 23 24 28 13 22 22 24 26 27 26 24 24 24 25 26 27 28 30 31 33 34 35 36 37 37 38
7 9 11 11 10 10 8 6 7 10 8 8 5 4 4 8 11 14 15 19 13 13 14 17 19 21 21 22 22 24 25 25 27 28 29 30 30 32 33 33 33 34 35
10 10 9 9 9 11 11 9 5 6 4 5 10 9 4 3 4 3 2 7 11 14 17 17 19 19 20 21 21 22 23 24 26 27 28 29 30 31 31 32 32 32 33
12 12 12 11 10 10 9 10 11 11 9 7 4 5 7 8 4 6 8 9 11 13 14 15 18 20 22 23 22 22 23 24 25 26 28 29 30 30 30 30 31 32 32

GFSMW_700_spd_099.txt.gz
Wind_Speed
25 28 24 25 29 26 30 34 34 38 41 43 38 32 35 34 39 36 34 30 31 32 30 31 30 30 30 27 27 28 28 26 23 35 31 35 37 35 36 30 22 23 26
35 36 36 31 30 29 30 33 36 36 43 43 39 37 34 35 36 36 33 32 33 31 31 32 30 31 30 27 26 30 28 31 28 27 39 39 41 38 33 30 24 27 28
35 30 22 26 33 32 32 38 39 39 39 42 41 43 36 38 37 36 35 33 33 31 30 31 32 32 30 29 27 26 29 23 26 38 36 44 45 39 35 31 29 29 27
27 25 29 29 28 33 35 36 40 42 40 41 45 43 36 39 38 36 34 30 28 29 29 32 33 34 30 29 26 27 26 31 34 41 33 44 40 39 38 33 31 28 27
29 30 33 32 34 30 32 38 36 40 44 42 45 42 40 37 35 33 31 27 29 29 29 32 35 33 31 29 28 32 33 29 34 45 41 47 38 32 23 24 29 28 27
25 24 27 36 39 43 37 35 36 40 44 43 42 42 36 36 33 31 30 28 28 29 31 33 34 31 31 30 31 33 33 33 42 42 49 41 40 37 30 24 22 22 21
18 17 16 20 21 23 37 39 33 39 41 36 39 36 33 33 30 30 28 28 28 30 31 32 31 29 30 30 32 35 36 37 35 41 45 45 38 38 27 25 21 22 22
14 14 18 20 18 19 22 27 34 38 33 33 32 29 29 29 29 27 27 27 28 30 30 29 28 30 30 26 31 35 41 42 39 42 51 42 38 35 29 25 25 24 22
10 15 20 20 17 18 11 21 25 29 32 32 30 28 28 28 27 27 24 26 28 29 27 26 28 30 28 31 27 37 37 37 36 43 50 39 41 30 30 30 28 24 26
8 11 19 19 21 17 16 20 24 29 31 29 29 29 28 23 24 24 25 25 27 26 25 26 26 27 26 28 34 36 40 37 39 41 47 41 46 37 33 29 28 27 25
3 6 17 21 19 24 23 23 26 27 29 29 27 25 23 26 25 25 24 25 24 23 24 24 24 23 27 28 31 32 34 40 39 42 45 42 47 42 38 35 33 34 30
7 2 19 15 20 22 24 28 28 28 31 32 27 24 24 25 26 26 22 23 20 21 21 19 19 25 23 24 27 31 33 38 39 42 39 45 41 42 41 40 38 39 40
9 5 3 20 18 16 15 17 21 27 27 28 28 24 25 30 28 23 22 18 17 18 18 16 19 25 26 29 22 26 33 29 30 35 42 40 37 35 32 39 44 42 49
11 7 4 9 20 22 22 14 22 27 28 27 29 29 30 27 25 22 20 15 14 15 13 11 10 10 20 24 23 22 31 34 30 34 39 38 33 35 40 43 37 37 33
12 9 4 4 8 10 16 15 24 23 23 22 23 23 23 27 25 23 19 14 13 15 13 8 12 2 10 11 21 21 23 34 30 41 35 33 41 39 33 30 28 30 30
10 9 5 4 7 9 10 12 22 28 25 26 21 22 27 27 27 24 20 15 14 17 13 10 9 7 3 8 20 18 25 33 37 38 35 39 43 23 26 28 27 29 31
11 10 5 5 6 8 11 10 13 27 26 21 21 19 20 30 26 24 20 16 15 16 17 15 15 15 13 12 9 13 20 30 36 37 35 30 31 24 29 28 28 28 28
12 13 12 9 5 8 11 15 14 16 24 26 25 19 21 30 27 27 22 19 16 16 15 14 12 11 11 15 15 15 18 20 22 23 26 26 24 25 27 25 29 30 29
13 13 14 12 10 9 10 18 18 19 23 27 27 27 28 29 31 28 27 23 21 23 23 22 22 21 21 17 17 20 23 21 21 23 22 26 28 29 27 26 29 26 27
15 16 18 20 17 14 12 11 18 22 27 32 30 31 30 31 32 33 32 28 26 24 25 24 24 23 19 16 16 17 18 20 22 25 29 28 28 23 23 27 29 32 33
18 20 19 18 20 23 23 17 8 13 18 21 31 35 33 32 32 32 30 24 23 23 23 26 28 28 28 29 28 27 27 30 31 30 31 34 33 32 34 37 41 41 41
16 17 18 18 20 22 20 21 21 19 16 8 8 18 30 33 33 31 31 31 29 29 30 29 31 31 30 30 32 34 35 36 37 35 36 37 36 37 39 38 40 39 36
15 16 16 17 17 17 17 17 21 22 20 19 18 15 9 3 16 29 35 31 35 39 35 34 32 31 31 31 32 32 34 35 39 40 41 39 37 35 32 31 30 29 30
15 16 15 15 14 15 17 18 17 17 16 16 16 15 12 12 12 10 7 8 12 13 21 18 22 32 26 32 21 23 23 21 22 22 19 20 20 21 22 22 23 24 25
13 13 14 14 15 15 15 16 16 15 14 15 14 14 14 12 10 8 7 4 2 2 1 1 2 1 2 5 7 7 9 10 11 12 14 15 16 16 20 21 22 23 24
10 11 11 12 13 12 12 12 12 13 14 13 13 13 12 11 11 10 9 9 8 7 5 4 3 5 7 7 8 10 9 10 12 12 12 14 15 17 19 21 22 23 24

GFSMW_700_spd_105.txt.gz
Wind_Speed
41 42 38 33 33 29 37 52 59 57 49 49 45 42 43 42 38 37 29 28 33 36 34 33 31 30 29 26 26 26 26 26 25 25 29 31 33 34 35 37 38 36 32
41 39 42 41 36 35 26 34 44 50 55 46 42 42 39 38 39 36 32 31 29 32 35 36 33 32 30 29 29 28 27 28 26 27 29 29 27 27 34 32 37 37 30
47 45 42 40 46 40 34 33 32 37 46 41 37 40 41 36 40 37 37 32 29 27 31 36 35 31 31 30 29 30 30 30 27 26 29 32 34 31 28 32 38 38 34
48 51 46 42 45 43 41 38 36 36 39 40 40 40 38 38 41 39 36 30 27 25 27 33 32 30 30 30 30 30 31 32 30 27 29 34 36 33 33 38 39 38 41
43 48 52 52 48 43 42 40 40 35 38 39 38 34 35 35 36 35 32 33 28 26 27 32 33 32 31 31 31 30 32 34 32 30 31 33 34 31 29 40 44 42 45
31 33 36 36 40 45 41 40 39 38 36 33 36 32 32 34 34 37 33 35 31 32 34 31 34 34 32 33 31 32 34 35 33 32 34 33 36 31 33 35 39 39 35
27 24 23 25 28 31 30 35 35 32 40 39 37 32 28 30 32 30 31 35 33 35 37 31 33 34 34 32 32 34 36 36 34 33 34 33 35 36 33 36 44 46 42
18 22 20 23 27 30 28 32 32 28 31 33 41 36 30 28 28 30 31 33 34 36 30 28 30 33 32 31 34 36 38 36 35 35 35 31 34 36 34 38 39 42 37
36 19 24 23 23 22 24 26 30 34 33 33 32 35 36 30 28 30 31 32 36 32 28 29 28 28 29 31 36 38 37 36 36 37 36 36 36 34 35 38 37 41 45
16 27 24 14 19 20 22 26 33 35 40 39 37 32 30 32 31 31 31 33 31 29 28 27 28 28 30 33 37 37 36 37 36 36 36 37 40 37 36 43 38 42 42
7 7 10 22 22 21 20 20 20 22 24 27 39 35 33 31 31 31 30 28 26 26 28 30 28 29 32 34 35 36 35 35 33 36 41 47 44 39 42 42 47 42 45
7 4 12 8 9 16 19 18 19 18 21 22 27 29 30 29 29 29 29 28 25 26 27 28 30 30 32 34 35 34 31 38 36 37 47 43 42 43 43 44 42 50 45
5 2 1 8 9 9 11 17 17 17 16 20 22 23 25 26 24 20 21 24 24 23 26 29 27 31 33 33 31 32 33 31 37 38 44 40 36 38 44 43 45 54 50
3 2 2 4 11 12 10 9 13 17 24 25 25 25 18 19 18 20 22 20 24 25 25 27 28 31 30 27 29 26 31 34 38 42 44 39 44 47 42 42 45 52 51
7 4 3 1 1 4 8 12 13 9 12 22 30 26 25 20 19 22 22 21 23 23 25 30 31 27 27 22 19 22 28 33 35 31 35 29 32 35 40 41 44 55 50
14 10 7 5 1 1 1 5 10 14 13 27 20 16 16 21 24 22 22 19 16 27 29 29 27 24 21 17 16 19 20 22 24 19 27 31 38 28 35 44 38 58 54
19 17 12 7 4 1 3 1 4 9 22 9 8 11 18 17 16 22 20 21 27 23 25 27 24 20 15 15 16 17 16 18 19 20 22 29 29 31 31 37 44 51 43
21 21 21 18 13 6 3 4 5 6 15 17 13 18 18 14 18 18 20 21 23 29 25 20 18 18 13 19 18 18 20 21 19 20 18 21 26 26 29 39 43 49 50
27 28 26 26 24 18 12 6 4 10 9 17 24 17 21 17 17 23 26 22 20 26 25 20 18 16 16 21 17 15 18 16 17 13 19 26 22 37 29 34 36 38 33
23 24 24 25 25 27 27 23 16 10 10 12 14 22 19 22 23 33 30 29 28 26 22 26 22 22 19 14 16 18 18 21 16 16 16 24 24 21 28 27 33 37 30
20 21 20 20 21 21 21 20 19 17 19 12 7 10 21 25 29 29 29 28 29 29 30 31 27 25 29 31 25 20 19 16 13 17 24 19 22 25 23 31 26 41 33
16 17 18 19 20 19 19 19 17 21 21 21 19 16 11 8 13 14 20 26 27 22 30 28 27 26 23 21 25 22 30 22 18 22 19 20 18 20 20 21 22 23 23
15 15 16 18 18 18 19 19 21 20 19 18 17 17 18 17 16 14 10 10 14 19 16 17 29 31 31 31 27 28 31 32 30 27 24 22 26 28 30 24 28 30 31
12 13 15 14 15 15 17 17 18 18 18 18 17 16 16 15 15 15 14 13 10 8 6 8 6 12 19 27 32 25 25 28 29 28 30 33 30 30 32 29 33 34 35
12 13 13 14 15 16 17 18 17 17 17 17 17 16 16 15 14 14 13 12 11 11 10 7 5 4 4 2 4 8 6 15 17 17 19 26 28 28 29 28 26 25 25
12 13 14 15 15 16 17 17 17 17 17 17 17 16 16 16 16 15 15 16 14 13 13 12 10 9 7 7 6 5 5 7 8 8 9 11 12 13 15 16 17 17 18

GFSMW_700_spd_108.txt.gz
Wind_Speed
51 47 46 44 37 40 35 34 34 40 49 54 52 49 48 44 40 34 29 33 37 39 38 38 34 32 30 27 26 25 26 24 22 23 26 27 29 30 30 30 28 26 25
49 47 45 44 37 37 42 37 35 33 41 50 58 53 48 48 45 38 34 34 36 37 39 40 38 35 34 31 30 28 28 26 25 26 29 29 28 32 31 34 32 32 33
43 43 41 45 45 37 37 41 36 36 30 42 53 54 52 48 41 38 38 36 38 38 34 34 36 37 37 35 31 30 29 28 26 29 30 31 31 24 31 30 28 39 36
35 34 38 43 47 43 37 41 40 38 33 29 40 51 52 52 44 40 36 36 36 38 35 34 32 32 37 36 32 29 29 29 29 31 33 31 30 33 32 28 33 29 30
34 39 40 42 46 45 45 39 39 39 35 33 32 40 43 46 37 33 35 35 35 37 34 29 27 25 33 34 32 30 31 30 31 31 34 33 30 32 38 38 32 27 29
32 31 29 28 33 39 44 40 39 35 35 32 30 32 37 39 37 37 36 35 35 36 33 29 28 24 28 34 32 32 32 33 34 33 33 33 34 32 33 34 34 26 38
26 25 29 31 27 28 29 31 30 31 33 32 32 32 34 35 34 31 33 32 33 31 31 31 30 28 30 35 34 34 34 35 36 36 35 36 34 33 34 34 38 34 28
19 15 18 19 23 21 23 24 24 23 29 30 36 38 33 32 31 32 31 32 33 29 29 31 31 32 34 34 35 35 37 38 37 37 38 37 35 33 31 38 33 40 37
24 22 26 10 22 20 19 23 25 30 31 30 35 42 39 33 32 29 29 32 32 32 35 33 33 36 33 33 32 35 37 36 38 39 38 39 35 34 34 35 36 35 37
10 19 21 29 19 20 20 20 21 27 30 32 29 33 33 39 30 29 29 33 35 33 34 35 36 34 30 29 31 33 34 37 38 39 38 36 41 38 35 32 36 36 36
12 1 10 23 20 10 13 15 20 23 26 29 31 32 27 33 32 33 32 32 32 32 37 35 31 31 29 29 31 32 34 35 38 38 38 37 35 33 36 34 36 42 35
16 15 8 15 9 10 14 18 16 18 18 24 31 30 32 36 34 30 33 33 32 34 34 29 28 29 26 28 30 32 34 36 37 36 38 34 32 35 42 39 39 38 40
9 12 9 1 2 2 2 13 16 14 13 17 19 24 32 32 31 28 28 30 32 30 29 24 27 25 28 31 31 32 33 35 37 38 36 39 39 41 37 44 45 40 43
11 9 6 4 2 1 4 6 2 12 15 10 14 20 22 26 28 26 30 25 25 28 29 25 22 24 26 28 28 30 32 33 35 36 37 36 39 41 42 44 48 45 46
13 10 7 5 5 1 4 3 8 6 14 22 20 24 22 23 27 24 27 24 21 25 25 23 22 24 25 25 27 29 29 26 27 27 32 39 40 43 41 50 44 41 38
21 16 11 7 3 2 0 3 6 6 9 8 19 19 26 34 24 24 12 18 23 21 21 19 21 20 20 27 29 27 27 27 24 24 28 29 27 29 37 37 35 45 41
25 23 20 17 12 5 1 4 1 2 8 13 14 16 18 20 26 21 16 19 20 20 18 13 15 19 26 27 23 20 22 22 26 22 23 24 22 22 27 27 34 29 38
29 30 30 30 28 21 12 5 4 4 2 8 4 5 13 13 12 16 16 19 20 21 19 22 29 23 20 18 18 20 24 26 26 22 23 21 25 23 24 31 31 35 34
26 27 28 29 29 29 30 26 17 9 7 4 15 12 4 12 14 14 11 18 18 21 20 25 23 25 22 18 17 21 25 25 22 19 20 17 18 16 21 25 30 33 28
21 21 22 23 21 24 25 23 24 22 13 3 7 11 20 16 16 15 15 23 24 22 27 30 29 28 22 23 19 21 18 18 21 22 21 14 12 12 11 13 18 30 41
18 19 19 20 21 21 22 19 19 21 26 26 23 17 9 13 17 21 20 21 25 29 33 35 32 29 28 30 27 25 27 24 23 21 16 17 16 13 18 17 20 25 28
17 17 19 20 21 22 22 22 22 26 25 24 22 20 20 20 18 14 10 12 15 20 24 27 26 18 29 31 28 31 31 34 32 29 23 23 22 19 19 20 17 23 29
14 16 17 18 17 18 19 19 22 22 23 22 22 22 22 21 20 18 18 17 16 15 13 13 18 21 17 15 23 24 29 28 30 28 33 30 24 26 22 22 25 24 22
14 15 17 17 18 19 21 22 22 22 22 21 21 21 20 20 19 19 18 18 16 15 15 16 15 13 11 13 16 17 20 25 30 34 33 31 30 34 35 29 29 29 29
14 15 16 17 18 19 20 21 21 21 20 21 20 20 20 19 19 19 19 17 16 16 15 15 14 14 14 14 11 9 9 9 7 9 8 13 17 21 26 29 32 31 30
13 14 15 15 15 16 17 18 18 19 19 20 20 21 21 20 21 21 22 21 20 19 18 18 17 17 17 16 16 15 14 13 12 11 11 9 7 7 10 12 14 16 17

GFSMW_700_spd_114.txt.gz
Wind_Speed
36 38 40 42 40 42 41 44 46 53 53 52 54 56 57 57 52 50 48 45 44 40 36 32 32 38 37 34 33 33 31 30 28 28 26 26 27 27 23 25 26 23 26
37 39 40 42 45 45 46 47 49 50 54 56 56 59 59 56 57 55 53 50 49 45 40 35 31 32 41 40 38 37 36 34 32 31 29 29 30 29 26 25 27 25 25
40 37 36 38 41 44 48 51 50 52 52 54 56 57 59 63 62 62 58 56 51 50 44 40 36 34 37 43 41 40 40 38 35 34 32 31 31 33 29 26 29 26 25
27 30 32 31 37 38 42 44 47 48 51 51 54 57 57 59 65 66 62 56 54 54 51 46 40 38 38 40 44 44 41 42 40 37 37 33 33 32 34 30 30 28 26
30 34 31 33 31 37 38 39 41 42 47 55 57 56 55 55 53 57 62 64 58 56 56 51 46 42 41 39 40 44 43 42 42 41 39 37 34 34 35 32 32 31 26
32 34 34 33 29 29 33 38 45 45 46 52 53 55 55 53 46 50 51 54 63 60 59 54 50 46 44 42 41 40 40 39 40 42 42 40 37 35 36 35 33 34 28
30 33 36 33 33 31 31 32 42 48 48 51 53 56 48 49 46 44 40 42 51 66 62 57 51 46 43 43 40 39 35 32 34 38 40 41 38 38 36 35 32 31 29
31 33 30 33 32 33 37 28 28 35 40 47 52 59 48 43 43 41 38 41 47 49 58 58 47 45 42 42 41 39 37 33 33 33 36 39 39 40 37 36 34 35 35
26 27 29 33 31 31 32 29 25 25 27 32 46 52 46 42 43 39 40 43 41 42 47 51 50 46 42 41 43 39 37 35 39 37 37 41 41 41 39 39 38 37 38
24 27 28 33 33 30 23 30 29 23 22 24 35 45 44 43 43 42 44 41 37 37 41 46 45 42 46 40 43 40 39 38 43 37 40 40 41 42 39 37 38 40 40
25 26 25 32 27 22 20 22 18 18 14 20 25 36 43 43 45 47 41 36 39 40 43 47 46 44 44 40 39 41 41 40 38 40 39 38 41 39 37 37 39 43 43
21 20 23 18 13 10 14 27 25 11 4 17 23 27 28 32 37 37 35 33 32 38 37 38 39 42 44 43 45 44 40 39 40 40 37 36 36 34 35 38 42 43 38
15 16 16 16 15 10 15 4 13 8 2 12 20 25 31 25 27 30 31 29 26 32 33 32 35 38 40 43 43 39 38 39 42 36 32 30 30 34 37 38 35 35 38
17 18 18 19 19 21 23 17 8 7 1 6 19 21 23 25 25 29 34 35 36 34 36 35 35 36 39 39 39 39 41 42 36 32 32 32 34 35 35 36 35 38 37
25 24 23 20 18 22 20 21 16 2 10 7 14 17 20 25 25 27 27 31 33 36 37 37 37 37 39 38 35 35 34 36 35 33 33 33 34 34 34 35 35 34 35
27 30 32 30 26 21 21 20 22 13 5 3 11 12 23 19 26 28 30 34 35 37 36 34 32 32 32 34 38 39 43 35 36 33 33 34 33 33 33 34 37 37 36
25 27 30 33 34 33 29 27 22 20 14 10 7 12 14 14 25 29 44 39 32 32 33 32 29 30 34 36 37 42 32 38 35 33 32 32 33 31 33 34 32 35 35
22 24 26 27 28 30 31 30 26 25 21 21 15 9 6 6 5 26 24 30 33 36 37 32 30 38 31 32 30 35 34 33 32 33 31 31 29 30 31 29 30 28 33
22 25 26 28 27 26 28 28 29 32 29 29 25 20 16 17 11 6 5 14 19 23 24 24 21 26 27 23 24 25 28 26 26 28 31 32 31 30 31 30 29 29 30
19 21 22 23 23 25 26 25 27 29 33 34 33 30 28 26 18 16 18 14 9 2 3 15 19 24 23 26 26 25 26 27 30 35 35 35 33 32 31 29 32 32 27
17 21 20 21 24 26 26 25 27 30 34 32 30 29 29 28 29 28 26 24 19 17 14 7 5 7 10 15 19 24 28 31 32 35 35 39 31 35 36 30 31 27 28
18 19 19 20 21 21 22 23 24 28 27 27 25 25 26 26 26 25 25 24 23 22 20 19 17 15 12 11 12 16 18 22 27 27 29 35 34 37 36 33 31 28 32
15 16 17 18 19 19 20 21 24 24 24 24 23 23 24 23 22 21 21 20 19 18 17 17 17 16 15 14 13 12 13 14 15 18 22 26 28 28 34 41 43 40 37
13 15 16 16 17 18 20 21 22 21 21 21 21 21 20 20 20 20 19 19 18 18 18 18 17 17 17 16 16 16 16 17 17 17 16 17 18 20 25 26 27 29 36
11 13 14 15 17 19 20 21 20 20 19 19 19 18 18 18 18 19 20 20 20 20 20 20 20 19 19 19 18 18 18 18 18 19 19 18 18 17 17 18 21 23 24
10 11 13 15 16 17 17 18 19 20 20 20 20 20 20 20 21 21 20 20 20 21 22 22 22 22 22 23 23 24 24 23 23 22 22 21 21 20 19 19 18 17 17

GFSMW_700_spd_117.txt.gz
Wind_Speed
32 37 35 36 35 36 35 35 40 43 48 52 50 49 51 49 49 48 48 47 47 46 44 41 40 38 36 37 34 33 33 32 32 29 29 28 27 26 24 24 24 26 24
32 36 36 36 40 41 39 40 41 44 47 51 55 57 55 54 55 51 48 47 49 50 47 45 42 39 34 35 40 38 36 35 36 35 33 32 31 29 29 28 27 28 26
27 36 39 38 39 41 43 42 42 45 48 52 55 58 61 62 60 63 55 53 52 55 51 47 46 44 40 38 37 42 42 39 39 39 37 34 34 34 33 32 29 29 28
29 32 35 34 35 38 43 45 46 43 45 50 55 59 61 63 59 62 65 59 59 59 54 52 51 50 46 41 38 38 43 43 42 41 40 37 37 35 31 36 34 29 31
29 32 33 35 34 36 42 44 43 44 44 45 50 57 63 63 63 63 64 70 64 62 57 56 57 54 51 45 41 39 39 44 46 44 41 40 38 39 39 39 39 35 32
28 30 31 31 31 34 37 43 44 46 46 46 45 51 61 64 63 61 57 60 66 64 61 61 60 59 54 51 44 42 42 41 42 44 45 43 40 40 42 41 41 41 37
33 33 34 34 34 32 30 38 41 43 43 45 48 50 55 62 65 61 58 45 54 57 59 61 63 60 57 54 51 48 45 42 42 45 44 39 39 37 41 43 42 42 37
34 31 31 33 36 34 33 35 37 41 39 42 49 54 53 55 61 65 53 62 42 50 48 55 57 63 60 57 54 50 45 43 43 43 34 31 32 31 36 42 44 42 41
27 28 28 31 31 31 37 32 30 38 37 36 38 43 54 58 57 61 56 49 47 46 46 43 53 57 66 58 55 51 49 45 45 45 38 38 30 31 35 39 40 40 39
27 27 26 25 27 32 28 25 24 29 34 32 33 32 36 47 48 54 53 48 48 46 43 44 48 50 56 61 52 50 47 46 45 40 41 37 35 38 40 42 41 40 39
25 24 22 23 25 28 30 26 19 17 18 25 26 25 25 30 37 46 46 45 46 44 43 40 41 44 45 52 53 50 49 46 44 44 41 43 40 42 44 42 41 43 41
22 20 17 19 21 16 24 23 19 16 18 21 20 15 15 21 31 39 39 41 43 42 36 36 35 37 40 45 49 50 49 47 42 45 45 37 44 43 44 38 41 40 37
14 12 13 14 14 13 18 15 6 7 13 12 13 11 13 23 31 36 35 36 36 37 35 34 33 33 40 43 48 47 50 47 44 45 39 43 45 44 41 34 35 35 36
17 20 20 20 18 20 19 18 15 7 6 7 11 15 18 24 26 31 34 29 33 36 32 33 35 36 41 46 46 47 48 47 47 42 39 49 45 40 42 36 33 37 37
22 26 28 28 26 20 21 22 20 18 11 9 2 20 23 22 24 22 26 30 30 30 31 33 35 37 39 40 41 42 46 48 47 45 48 48 46 43 37 37 38 38 38
20 23 27 28 27 27 28 27 28 24 17 15 11 9 21 30 25 23 22 23 28 31 31 30 31 30 30 34 38 44 45 43 42 46 42 40 39 38 37 39 39 37 38
18 21 24 26 29 30 29 30 30 27 28 29 26 19 12 7 18 23 24 26 27 30 33 36 41 40 35 36 37 35 36 37 40 41 41 39 36 37 39 38 37 37 38
19 21 23 26 26 28 28 30 30 30 29 28 29 26 22 17 13 9 15 29 30 33 30 33 34 38 37 32 32 37 33 31 37 47 46 44 44 43 38 37 36 37 37
16 19 22 25 24 25 28 27 27 29 30 35 36 35 31 28 26 21 14 5 9 6 10 12 19 26 28 36 33 37 42 43 43 35 36 38 38 39 35 34 37 37 36
17 20 21 22 23 24 26 25 26 28 32 34 35 33 32 32 35 33 26 22 20 19 16 8 4 2 13 25 23 33 31 29 29 28 31 34 35 34 36 34 34 36 36
17 18 18 19 21 23 23 23 24 28 32 31 30 29 29 30 31 30 29 29 28 26 24 21 18 15 11 10 7 8 10 14 21 29 32 33 35 35 32 35 38 37 39
14 16 17 18 20 21 22 23 24 28 28 28 27 27 28 28 27 28 27 26 25 23 22 20 18 16 16 15 13 14 17 17 17 16 18 22 25 27 32 35 36 38 39
12 14 15 17 18 19 21 22 24 25 25 25 24 25 25 24 24 24 24 23 23 22 22 21 21 19 18 17 16 15 15 14 14 14 15 16 18 19 22 26 32 36 35
11 13 14 15 16 17 19 21 22 22 22 22 22 22 22 24 24 23 22 22 21 21 21 21 21 22 22 21 21 21 19 19 20 20 21 20 20 20 21 22 23 24 26
10 11 12 13 15 16 17 19 20 21 21 22 23 23 24 24 23 23 25 25 26 26 26 26 25 24 24 24 24 22 22 24 24 24 24 25 25 25 24 23 23 23 23
8 9 10 12 13 14 16 18 19 21 21 22 22 23 24 25 25 26 26 25 26 28 28 29 30 32 33 32 32 32 32 31 30 29 30 30 30 29 28 27 27 26 25

GFSMW_700_spd_120.txt.gz
Wind_Speed
30 35 42 45 45 42 41 39 37 38 41 42 43 46 45 41 46 43 44 44 48 47 45 45 44 39 38 37 37 34 31 31 30 31 31 29 28 27 25 23 21 22 22
31 39 48 50 47 42 39 40 42 43 43 44 47 49 50 53 50 48 49 44 47 49 50 50 49 45 42 40 41 38 37 36 34 35 33 34 33 31 27 27 25 26 27
37 40 47 45 44 42 40 40 41 44 46 47 49 51 52 52 54 54 55 53 51 50 51 51 50 51 47 44 41 39 36 36 39 38 38 39 37 34 32 31 30 29 30
41 42 41 40 42 43 44 45 44 42 41 47 50 53 56 57 56 57 55 49 57 56 54 52 49 50 53 48 45 40 39 36 35 42 41 40 38 40 39 35 34 31 30
30 33 38 41 40 40 39 40 44 45 43 44 48 52 55 59 61 59 61 63 50 61 57 56 55 51 55 50 52 45 43 41 36 38 42 43 41 40 40 37 36 35 34
29 32 37 39 39 38 40 41 41 42 43 45 45 48 50 52 57 61 61 63 68 66 63 59 58 56 57 56 50 41 44 44 40 39 39 39 42 41 42 41 41 40 39
32 35 38 39 39 37 38 40 40 40 40 43 45 47 50 49 50 53 59 59 60 65 62 57 61 60 62 59 57 50 49 45 45 41 40 39 38 39 40 41 41 40 39
35 40 36 36 35 36 36 32 34 38 42 44 45 46 47 48 48 49 50 55 61 59 55 55 51 60 63 60 57 55 52 50 48 44 42 40 39 39 43 47 40 37 36
35 34 34 32 31 32 30 30 29 31 38 41 42 43 43 44 46 49 53 52 52 62 60 56 52 49 58 60 57 57 56 52 50 48 43 43 41 40 36 38 34 29 31
33 31 28 26 27 29 27 26 31 29 26 28 33 39 40 42 45 46 49 53 52 52 60 59 55 55 50 49 50 51 57 56 52 50 47 45 43 39 39 36 34 36 37
30 27 24 24 26 26 24 29 30 27 20 19 22 28 31 35 37 38 41 45 51 50 53 57 53 65 38 39 46 48 52 53 51 49 48 47 43 41 42 40 33 33 37
23 22 20 18 18 17 20 22 23 24 24 15 18 19 23 24 23 27 29 29 34 38 47 44 57 59 34 40 41 44 48 47 49 47 49 47 42 42 43 45 41 37 38
15 14 12 14 14 16 18 22 23 24 24 18 20 20 14 15 15 15 17 22 28 35 40 42 44 38 41 41 36 37 41 45 47 47 47 45 42 44 45 48 39 42 41
13 13 17 20 21 19 19 21 22 25 25 20 15 10 13 11 11 12 15 18 22 29 34 38 41 41 39 36 35 38 38 40 43 43 46 46 46 48 51 49 43 47 45
10 16 22 24 26 25 26 28 28 23 23 22 18 13 10 12 12 17 16 22 26 32 35 32 31 30 33 37 31 32 37 41 43 48 48 50 49 49 49 46 46 44 46
9 14 19 23 24 28 30 32 33 33 32 31 31 26 22 11 13 11 12 15 27 38 22 30 32 26 33 30 32 32 34 38 41 44 49 47 46 51 49 49 48 47 44
11 17 18 21 22 27 29 33 35 33 34 35 34 34 31 26 5 8 7 11 8 14 15 17 19 23 22 31 29 32 35 37 42 41 43 48 47 46 44 49 41 40 41
15 16 19 20 22 25 27 30 31 31 35 38 39 37 37 37 33 27 20 8 9 10 12 17 19 21 25 31 24 19 23 41 41 42 40 38 48 52 44 49 53 49 43
13 16 18 19 20 22 24 25 27 28 32 35 37 37 39 40 39 37 36 28 32 26 18 13 3 6 17 27 40 36 36 20 30 28 33 36 32 32 38 43 41 48 41
12 14 16 18 18 21 23 23 25 27 31 33 34 35 35 35 37 36 34 34 34 35 32 26 27 25 21 19 11 6 14 17 24 23 23 34 35 42 43 38 37 44 41
11 13 15 15 18 21 22 22 24 28 31 32 31 31 32 33 34 34 33 31 31 30 28 27 26 25 23 23 21 20 18 16 12 10 8 16 16 19 26 31 34 38 39
11 12 14 15 17 18 20 21 23 27 27 27 27 28 28 29 29 29 29 28 28 27 26 26 24 24 23 22 21 20 18 17 16 15 15 15 17 20 20 19 20 23 26
10 11 13 14 15 16 18 19 22 24 25 25 25 26 26 26 26 24 24 23 23 23 24 24 23 22 22 23 23 21 20 19 19 19 18 18 18 16 16 16 17 18 20
8 9 11 12 13 15 17 20 22 23 23 24 24 24 23 24 25 25 25 25 24 25 24 23 23 24 23 21 20 20 21 23 23 22 23 23 23 22 22 22 22 22 22
6 8 9 11 13 15 18 20 21 21 22 23 24 26 27 28 26 26 26 27 28 29 29 29 30 29 28 28 29 28 26 24 24 24 26 26 27 29 29 28 28 28 27
5 6 8 10 12 14 16 18 19 20 22 23 23 24 25 25 27 29 32 33 32 31 33 33 32 32 32 33 34 33 33 34 34 33 31 30 31 30 30 31 32 32 31

GFSMW_700_spd_123.txt.gz
Wind_Speed
42 47 46 46 44 43 43 43 44 46 47 45 44 46 43 44 45 45 46 43 48 47 45 47 41 42 41 38 35 33 32 28 27 27 28 30 28 29 27 25 22 21 19
40 43 52 50 45 44 45 46 47 50 50 48 49 49 49 47 48 48 48 49 49 46 46 58 49 45 45 43 42 39 38 36 32 34 32 32 33 33 30 29 26 23 23
45 45 45 43 42 44 46 49 53 49 48 50 48 50 53 53 50 50 53 53 53 49 49 52 49 55 50 48 47 46 43 42 37 37 38 37 37 34 33 32 29 27 28
33 34 38 38 41 45 49 56 56 57 56 53 50 49 51 55 55 54 55 56 56 56 53 50 50 49 50 52 53 51 49 46 43 40 38 37 35 37 36 35 33 30 30
33 32 37 41 45 48 53 56 57 54 51 49 48 50 51 53 56 56 58 58 59 59 58 54 51 52 51 51 55 55 59 54 46 43 38 34 34 34 37 38 35 33 34
24 28 34 40 44 45 48 50 52 53 50 48 49 50 50 50 52 54 57 59 60 60 61 58 56 54 52 53 53 56 64 63 56 44 41 38 35 31 34 35 35 35 36
27 33 38 42 45 48 47 47 47 46 47 48 46 47 49 49 47 47 50 53 59 61 62 56 54 58 56 54 56 59 62 53 62 45 41 39 37 34 31 32 33 33 35
29 34 39 44 43 43 42 43 45 44 41 41 43 45 48 49 49 46 44 45 49 55 60 64 59 57 59 56 56 56 57 54 47 34 52 43 39 35 35 33 32 33 34
33 35 38 40 42 40 37 37 36 32 34 38 43 43 41 45 47 44 43 42 41 44 47 53 64 62 62 56 51 56 57 55 51 56 43 44 39 38 37 36 36 33 36
36 33 34 36 35 32 31 31 28 27 27 27 28 29 31 32 36 38 39 38 37 39 42 46 50 60 61 56 52 49 50 54 54 50 47 44 43 42 42 40 37 33 34
33 31 30 28 27 26 24 22 21 22 22 23 20 18 20 21 24 28 31 35 38 40 44 47 52 50 59 57 55 55 44 49 52 49 53 50 47 45 45 44 41 36 35
24 25 24 24 21 18 17 16 18 22 26 23 21 19 13 14 15 17 24 29 30 32 38 42 49 49 50 53 53 45 54 50 38 37 49 52 49 49 48 47 42 38 37
18 18 18 16 15 15 15 17 21 25 24 27 26 19 5 7 9 12 12 12 15 18 18 27 39 47 45 44 47 53 48 49 40 46 48 51 48 50 48 46 42 41 40
13 15 14 17 19 20 23 26 25 27 28 30 33 21 5 6 5 4 5 6 9 10 11 16 23 36 42 39 43 41 39 39 39 47 48 51 47 48 49 45 43 42 44
8 8 12 16 20 25 27 30 30 31 32 32 35 36 26 11 4 5 9 11 14 17 15 17 21 26 31 38 36 39 39 34 34 45 41 43 51 48 51 45 46 46 44
4 5 11 19 21 24 27 28 29 32 36 41 41 38 37 32 25 13 16 6 9 19 24 22 26 30 32 36 29 38 44 42 43 44 47 49 45 47 49 48 48 48 45
7 14 11 15 19 21 24 25 29 32 35 36 38 40 42 43 42 39 36 27 20 11 12 6 28 33 42 33 24 22 31 38 48 39 41 33 39 44 44 48 51 46 46
13 7 11 14 17 19 21 24 26 28 31 33 34 36 37 40 42 45 45 46 42 41 40 37 36 17 12 12 17 13 23 24 27 34 28 35 43 42 47 52 49 50 55
7 6 10 13 16 18 19 22 23 25 28 30 33 35 36 36 37 38 38 39 37 37 39 39 39 38 34 30 25 17 1 18 11 18 22 33 28 25 34 42 39 37 32
7 8 11 14 15 16 18 18 21 23 26 29 31 31 32 32 33 34 34 34 34 35 34 32 31 29 29 31 30 29 29 25 18 15 11 7 9 16 20 25 28 33 38
7 9 12 12 12 15 16 17 18 21 27 26 27 27 28 29 31 30 30 30 29 28 27 28 27 25 24 24 23 22 19 18 18 19 21 22 19 16 14 9 8 11 21
7 8 10 9 11 13 15 15 17 23 24 24 24 25 26 27 27 27 27 27 27 26 27 26 24 24 23 21 20 19 19 18 17 16 15 13 11 11 10 10 12 14 15
8 8 8 9 10 12 14 16 20 22 22 22 22 24 24 24 24 23 23 23 24 24 25 24 23 23 23 23 22 20 18 17 17 16 16 16 18 18 18 17 16 16 16
7 7 8 8 10 12 15 16 18 19 19 19 21 22 22 23 23 23 23 23 23 24 25 26 26 25 22 20 18 17 18 19 20 21 21 21 21 21 22 22 22 22 23
7 7 7 9 10 12 13 14 16 17 18 20 21 22 24 24 25 24 25 27 29 31 31 31 30 28 28 28 27 25 23 23 23 24 24 25 26 27 28 28 29 30 29
7 6 7 9 9 9 11 13 15 17 19 21 23 25 27 29 30 31 33 33 32 31 33 34 34 33 31 30 31 29 28 28 28 28 29 30 30 30 31 31 31 32 33

GFSMW_700_spd_126.txt.gz
Wind_Speed
38 39 40 43 50 48 47 46 46 49 50 49 47 46 49 51 54 52 49 46 47 48 53 50 46 71 52 43 40 38 37 35 31 31 31 29 30 30 29 27 23 21 19
35 38 44 46 45 45 47 49 51 50 51 52 51 52 53 57 54 55 54 53 50 50 50 51 42 38 53 47 41 41 40 38 39 37 33 33 32 33 32 32 29 25 22
37 41 43 47 49 45 44 46 48 51 50 51 54 57 60 56 57 57 58 55 55 53 52 51 48 43 48 52 50 47 48 45 44 42 41 39 38 34 34 32 32 31 27
36 37 40 43 46 46 43 43 45 50 54 59 61 64 65 65 62 61 59 59 57 56 57 55 55 50 44 45 47 53 56 50 48 49 46 45 43 39 35 33 32 32 31
33 32 34 36 40 43 48 53 56 58 61 64 66 65 65 62 57 53 57 58 59 59 58 59 58 55 52 50 54 56 58 54 56 57 50 53 48 43 39 34 32 33 33
25 28 31 34 39 41 45 50 54 56 56 57 57 59 57 54 52 47 48 52 56 59 59 60 61 60 57 56 54 53 56 63 59 64 61 60 57 46 40 33 33 31 31
26 31 35 41 45 48 50 54 54 52 50 50 51 52 53 52 50 47 45 44 49 53 57 59 61 62 60 58 56 53 53 53 65 73 66 66 63 54 42 36 35 31 29
33 37 40 43 44 46 47 49 47 45 45 46 44 44 46 48 46 46 45 43 43 46 50 54 58 61 60 57 61 57 56 53 55 55 54 46 53 52 42 40 38 35 34
31 35 39 40 38 38 40 40 40 39 39 38 36 36 40 44 46 45 43 42 42 42 43 47 53 55 60 60 57 57 60 54 55 55 57 44 51 57 40 42 41 39 39
34 36 36 35 34 32 32 32 31 31 29 28 28 28 25 27 30 32 35 36 34 35 38 38 41 46 50 58 62 60 55 51 52 48 46 46 41 42 50 46 43 42 39
33 29 29 29 29 29 29 28 27 25 24 23 20 20 19 18 16 14 16 19 23 26 29 32 36 40 43 49 59 67 60 60 59 54 45 41 42 39 44 53 52 42 37
26 23 24 24 24 22 21 17 14 19 25 28 27 18 12 4 6 6 7 9 12 17 23 29 35 40 42 45 49 52 67 61 55 51 49 37 35 56 40 44 43 44 41
18 17 19 19 18 17 18 18 21 26 32 36 33 25 14 5 5 6 4 4 6 11 16 22 29 35 39 41 45 48 48 54 53 48 50 46 49 44 46 42 43 52 47
13 12 13 13 15 17 22 26 29 32 34 39 38 34 25 11 5 5 6 3 6 10 11 13 19 19 20 31 37 40 42 44 48 55 48 50 59 54 38 43 44 52 51
10 8 6 7 15 19 22 24 26 28 33 38 41 44 44 37 24 12 4 6 7 11 16 17 17 17 14 13 20 28 34 32 41 45 53 54 48 42 46 48 49 48 52
6 1 11 12 9 12 16 21 23 27 32 33 39 42 44 46 46 45 42 38 32 18 10 14 14 17 16 17 18 22 30 40 39 45 44 46 46 44 47 51 50 46 50
5 8 5 5 7 11 15 19 21 22 25 26 28 30 33 36 41 42 43 45 43 42 43 28 12 1 12 16 22 25 26 32 36 42 41 43 39 44 51 40 40 48 45
9 4 3 5 8 11 15 17 18 20 22 25 27 30 31 33 34 32 33 33 33 34 37 40 42 42 40 33 18 3 12 15 22 23 31 35 34 40 50 49 41 45 46
6 2 4 6 8 10 13 14 15 16 18 22 25 26 27 28 29 29 30 32 31 30 30 30 29 30 32 32 34 33 28 24 12 3 0 6 16 27 21 32 33 44 24
6 5 6 7 7 9 12 12 11 14 17 22 25 26 26 27 28 30 30 30 29 28 27 27 26 25 26 24 23 22 22 23 22 24 24 17 9 9 5 8 11 26 29
8 7 7 7 5 7 10 10 11 13 21 24 24 24 25 26 28 28 28 29 28 28 27 26 25 22 21 20 19 17 16 15 15 14 13 12 11 11 15 15 13 12 10
8 8 7 6 5 5 9 10 11 17 21 21 21 22 23 24 24 25 25 25 25 25 26 26 25 25 24 22 20 19 17 16 14 11 10 10 9 7 5 6 7 10 10
9 8 6 5 6 7 8 10 12 16 17 17 17 18 20 21 21 21 21 21 22 23 24 24 24 25 24 24 23 21 19 18 16 16 15 14 14 15 15 15 16 17 17
9 8 6 6 8 8 8 8 11 13 14 14 15 16 17 18 19 20 21 22 21 22 22 23 24 25 24 23 22 21 20 19 19 19 18 19 19 19 20 21 23 24 25
9 8 7 8 8 7 6 7 9 10 11 12 14 16 18 20 22 23 25 27 28 28 29 28 28 27 28 29 28 25 24 24 23 22 21 20 21 23 25 27 28 29 30
10 9 10 9 7 4 3 4 7 9 12 15 17 20 23 25 28 30 32 32 31 31 32 31 30 30 29 29 30 30 30 29 28 27 27 27 26 26 27 27 28 29 32

GFSMW_700_spd_132.txt.gz
Wind_Speed
32 34 36 37 38 39 39 40 41 43 44 45 45 48 49 46 47 48 49 50 50 50 48 47 47 48 46 46 42 45 51 67 55 45 45 44 42 44 42 39 35 33 31
32 34 36 38 39 39 39 40 41 42 43 45 45 47 49 52 52 52 53 52 52 52 52 51 49 50 51 50 45 42 42 52 65 54 49 45 46 47 45 43 40 37 36
34 35 33 33 34 36 38 39 39 39 41 43 44 45 47 49 50 50 51 53 53 54 56 58 57 54 55 54 47 43 45 49 53 64 57 47 51 44 45 45 42 40 39
30 29 31 33 35 36 37 38 40 42 44 46 48 50 52 53 53 56 57 58 61 61 60 62 63 62 60 57 51 46 43 44 51 49 56 56 43 42 45 43 43 41 42
27 29 30 32 36 40 44 45 46 45 46 49 51 54 55 57 60 62 62 62 62 62 61 63 62 60 57 56 53 51 47 48 51 51 55 66 50 43 50 41 43 44 42
27 26 29 31 34 38 40 44 48 49 51 53 54 53 54 55 56 57 57 58 57 60 58 56 58 56 53 53 53 53 49 49 48 47 41 62 57 64 42 46 41 48 48
21 23 26 32 34 40 43 46 46 47 48 48 48 49 51 54 55 56 56 54 52 51 50 50 52 51 48 49 52 54 53 48 48 51 50 43 64 55 52 53 49 46 53
23 30 29 35 39 41 44 43 40 38 38 38 37 40 43 46 47 49 48 46 45 42 40 41 44 44 41 45 49 52 54 49 47 48 50 42 45 59 36 51 48 52 46
29 27 35 40 42 41 38 37 32 29 29 31 33 35 38 39 36 33 32 30 33 35 35 36 37 36 35 39 43 48 51 53 47 47 50 48 47 46 46 55 53 50 53
25 33 36 39 39 32 30 28 22 21 26 28 29 28 26 22 20 16 14 13 14 17 19 23 26 28 31 32 37 43 46 49 49 48 50 49 54 49 51 47 43 45 46
30 31 35 36 28 24 20 16 17 22 27 33 27 18 18 17 10 9 12 13 11 10 9 9 13 17 22 25 29 33 37 43 46 49 51 52 53 52 54 51 47 44 36
28 30 33 24 20 18 11 13 17 22 29 38 42 26 24 23 26 24 22 17 15 14 10 5 4 7 11 17 23 27 29 33 39 43 48 52 50 48 47 47 50 44 41
25 29 25 18 15 14 9 10 18 26 32 36 38 40 39 38 36 30 26 23 17 14 12 10 7 2 3 7 12 17 21 26 31 36 39 41 47 49 46 47 46 47 39
25 25 18 12 8 8 13 14 16 17 20 26 34 35 37 41 41 41 40 40 39 35 25 15 9 8 5 2 3 7 12 20 28 33 33 36 37 41 47 46 43 39 37
22 19 12 7 3 6 10 12 12 15 19 22 24 24 28 31 32 34 37 39 41 44 43 35 24 13 6 6 9 9 7 6 10 16 25 32 33 31 35 42 47 47 39
19 12 5 2 5 5 6 7 10 14 18 19 22 24 26 28 30 32 33 33 33 35 39 43 46 44 38 24 12 7 5 5 8 12 21 24 28 29 31 33 38 40 39
13 8 6 4 5 3 4 6 9 13 15 17 18 20 24 26 28 30 29 28 29 31 32 32 31 35 38 39 41 39 22 6 7 13 16 17 20 26 31 33 34 37 41
9 9 5 2 3 2 2 5 9 12 13 15 17 19 23 26 27 28 29 30 30 30 30 29 28 29 29 28 28 28 30 34 31 21 6 8 15 19 23 29 33 33 38
10 11 4 4 3 2 2 5 9 10 11 12 14 18 21 24 25 26 28 29 30 30 31 30 29 28 27 26 24 22 21 20 20 23 25 27 24 10 3 10 12 20 27
14 8 4 4 3 1 1 3 8 9 9 10 13 17 20 22 23 25 26 27 27 28 27 27 27 27 26 25 24 22 20 17 15 14 12 11 10 12 16 16 16 10 5
12 7 6 5 4 2 1 5 7 8 7 10 14 18 20 22 24 26 26 26 26 25 24 25 24 23 23 23 22 21 19 18 18 16 15 13 11 10 10 9 9 7 10
10 8 6 5 5 4 4 6 7 5 7 10 13 16 18 21 23 24 24 24 24 24 24 24 23 22 21 21 22 22 21 21 19 18 16 14 13 13 13 13 13 14 15
8 7 8 7 6 7 7 6 5 5 7 10 13 15 19 20 21 21 21 22 22 22 22 21 21 21 22 23 23 22 22 22 23 23 23 23 21 20 19 18 18 18 19
11 10 10 9 8 9 8 6 4 4 5 8 11 14 16 17 20 21 23 24 24 25 24 23 23 23 22 21 21 21 22 23 25 26 25 25 25 25 26 27 27 26 25
13 13 12 11 11 11 7 4 2 2 4 7 9 11 13 16 19 21 23 25 26 26 26 26 26 26 26 26 27 27 26 26 25 25 25 26 26 26 27 27 28 29 29
15 14 13 12 13 11 8 6 3 1 3 6 9 13 16 18 20 23 26 28 28 29 30 30 30 31 30 30 29 30 29 29 30 30 30 30 30 30 30 29 29 30 30